sat.trackr.live / text

‹ back to catalog

NEXTSAT-2

NORAD 56743 · 2023-072A

PAYLOAD ACTIVE UNKNOWN

§ Identity

Operator
Country
SKOR
Launch date
2023-05-25
Launch site
NSC
Launch vehicle
Mass (kg)
RCS (m²)

External: N2YO · Heavens-Above · Gunter

§ Orbital elements

Epoch: 2026-05-25T04:16:36.801408Z

Period
94.27 min
Inclination
97.5268°
Eccentricity
0.0007353
Mean motion
15.27457808 rev/d
Perigee alt
478.4 km
Apogee alt
488.5 km
Semi-major
6,861.6 km
B*
2.4184e-4
RAAN
341.9597°
Arg perigee
100.3953°
Mean anomaly
259.8115°
Rev number
16,608

§ Raw data

NEXTSAT-21 56743U 23072A   26145.17820372  .00006427  00000+0  24184-3 0  99972 56743  97.5268 341.9597 0007353 100.3953 259.8115 15.27457808166080

JSON: /api/v1/satellites/56743 · /tle

For live sub-satellite position, see the globe view (requires WebGL).

§ Visibility from observer

Set your observer location to see the next 7 days of passes ≥ 10°. The values pass through the URL so the page stays shareable.

No JS? Fill the form by hand. The geolocation button needs JavaScript.